DW4121 Weather Reports


time (UTC)temp
C
wind
direction
speed
KPH
gust
KPH
rain 1hr
cm
rain 24hr
cm
rain mn
cm
humidity
%
barometer
mb
20260505191105 15 61 8.0 16.1 0.00 0.03 0.03 67 1010.4
20260505190604 15 112 6.4 16.1 0.00 0.03 0.03 66 1010.4
20260505190104 15 114 8.0 12.9 0.00 0.03 0.03 65 1010.4
20260505184604 15 168 1.6 4.8 0.00 0.03 0.03 60 1010.3
20260505184104 15 168 3.2 4.8 0.00 0.03 0.03 60 1010.3
20260505183604 15 168 4.8 9.7 0.00 0.03 0.03 60 1010.3
20260505183104 15 173 8.0 9.7 0.00 0.03 0.03 59 1010.2
20260505182604 15 183 8.0 11.3 0.00 0.03 0.03 60 1010.2
20260505180604 15 92 4.8 12.9 0.00 0.03 0.03 60 1010.2
20260505180105 15 111 4.8 12.9 0.00 0.03 0.03 60 1010.2
20260505175104 15 139 1.6 9.7 0.00 0.03 0.03 58 1010.2
20260505171104 16 47 4.8 11.3 0.00 0.03 0.03 58 1010.2
20260505170604 16 68 8.0 19.3 0.00 0.03 0.03 58 1010.2
20260505165604 16 51 4.8 11.3 0.00 0.03 0.03 56 1010.2
20260505164604 16 118 1.6 8.0 0.00 0.03 0.03 56 1010.2
20260505164104 16 112 3.2 4.8 0.00 0.03 0.03 56 1010.2
20260505163604 16 124 3.2 4.8 0.00 0.03 0.03 56 1010.2
20260505162104 16 55 3.2 4.8 0.00 0.03 0.03 56 1010.2
20260505160604 16 148 0.0 4.8 0.00 0.03 0.03 56 1010.2
20260505151604 17 42 4.8 11.3 0.00 0.03 0.03 56 1010.3
20260505150604 17 31 8.0 16.1 0.00 0.03 0.03 54 1010.4
20260505150106 17 75 6.4 19.3 0.00 0.03 0.03 55 1010.4
20260505140604 16 42 6.4 12.9 0.00 0.03 0.03 61 1010.8
20260505123104 16 168 8.0 16.1 0.00 0.03 0.03 57 1011.0
20260505122603 16 114 4.8 9.7 0.00 0.03 0.03 58 1011.0
20260505121604 16 104 4.8 12.9 0.00 0.03 0.03 58 1011.0
20260505120604 16 123 8.0 19.3 0.00 0.03 0.03 57 1011.1
20260505113605 17 15 4.8 11.3 0.00 0.03 0.03 58 1011.1
20260505112604 16 122 8.0 16.1 0.00 0.03 0.03 60 1011.2
20260505112105 16 123 3.2 12.9 0.00 0.03 0.03 60 1011.2
20260505111104 16 134 6.4 16.1 0.00 0.03 0.03 61 1011.4
20260505110104 16 127 4.8 12.9 0.00 0.03 0.03 65 1011.5
20260505101604 13 36 4.8 11.3 0.00 0.03 0.03 74 1011.8
20260505100104 13 34 8.0 14.5 0.00 0.03 0.03 76 1011.9
20260505095104 13 63 6.4 11.3 0.00 0.03 0.03 77 1011.9
20260505094104 13 36 8.0 9.7 0.00 0.03 0.03 77 1012.0
20260505093104 13 55 4.8 9.7 0.00 0.03 0.03 78 1012.0
20260505092604 13 55 4.8 11.3 0.00 0.03 0.03 79 1012.0
20260505091604 12 103 4.8 14.5 0.00 0.03 0.03 80 1012.1
20260505090104 12 52 4.8 9.7 0.00 0.03 0.03 81 1012.2
20260505085104 12 49 8.0 12.9 0.00 0.03 0.03 81 1012.3
20260505084104 12 61 8.0 12.9 0.00 0.03 0.03 81 1012.4
20260505083604 12 61 8.0 14.5 0.00 0.03 0.03 81 1012.3
20260505082604 12 70 4.8 11.3 0.00 0.03 0.03 82 1012.3
20260505082104 12 131 4.8 9.7 0.00 0.03 0.03 82 1012.3
20260505081104 12 60 4.8 11.3 0.00 0.03 0.03 83 1012.2
20260505080604 12 60 3.2 9.7 0.00 0.03 0.03 83 1012.2
20260505075103 11 63 8.0 12.9 0.00 0.03 0.03 83 1012.2
20260505074104 11 47 6.4 14.5 0.00 0.03 0.03 84 1012.2
20260505073606 11 34 8.0 11.3 0.00 0.03 0.03 84 1012.2
20260505073103 11 65 4.8 9.7 0.00 0.03 0.03 84 1012.1
20260505071604 11 55 4.8 9.7 0.00 0.03 0.03 85 1012.3
20260505070603 11 55 1.6 4.8 0.00 0.03 0.03 85 1012.3
20260505065603 11 55 3.2 4.8 0.00 0.03 0.03 85 1012.3
20260505065103 11 55 3.2 8.0 0.00 0.03 0.03 86 1012.4
20260505064104 11 55 4.8 9.7 0.00 0.03 0.03 86 1012.4
20260505062104 11 101 6.4 11.3 0.00 0.03 0.03 86 1012.4
20260505060606 11 37 8.0 12.9 0.00 0.03 0.03 87 1012.3
20260505055606 11 148 3.2 4.8 0.00 0.03 0.03 87 1012.3
20260505054106 11 46 3.2 9.7 0.00 0.03 0.03 87 1012.3
20260505053106 11 87 1.6 4.8 0.00 0.03 0.03 87 1012.5
20260505052606 11 88 1.6 4.8 0.00 0.03 0.03 87 1012.4
20260505051605 11 88 1.6 4.8 0.00 0.03 0.03 87 1012.4
20260505051105 11 88 1.6 4.8 0.00 0.03 0.03 87 1012.5
20260505050606 11 88 3.2 4.8 0.00 0.03 0.03 87 1012.5
20260505041605 11 125 3.2 4.8 0.00 0.03 0.03 87 1012.6
20260505041105 11 125 1.6 4.8 0.00 0.03 0.03 87 1012.5
20260505035105 11 130 4.8 9.7 0.03 0.03 0.03 87 1012.5
20260505033105 11 181 3.2 8.0 0.03 0.03 0.03 87 1012.6
20260505032607 11 181 3.2 8.0 0.03 0.03 0.03 87 1012.6
20260505031605 11 181 1.6 4.8 0.03 0.03 0.03 87 1012.6
20260505030605 12 181 1.6 3.2 0.03 0.03 0.03 87 1012.6
20260505030105 12 181 3.2 4.8 0.03 0.03 0.03 86 1012.5
20260505025105 12 181 3.2 4.8 0.00 0.00 0.00 86 1012.6
20260505024605 12 181 0.0 4.8 0.00 0.00 0.00 86 1012.6
20260505023606 12 181 0.0 8.0 0.00 0.00 0.00 86 1012.6
20260505022106 12 164 3.2 4.8 0.00 0.00 0.00 86 1012.6
20260505021105 12 154 1.6 4.8 0.00 0.00 0.00 86 1012.7
20260505020106 12 155 4.8 8.0 0.00 0.00 0.00 85 1012.6
20260505015106 12 179 3.2 8.0 0.00 0.00 0.00 85 1012.8
20260505014606 12 179 4.8 9.7 0.00 0.00 0.00 85 1012.9
20260505014105 12 175 1.6 9.7 0.00 0.00 0.00 85 1012.8
20260505013105 12 162 3.2 9.7 0.00 0.00 0.00 85 1012.9
20260505012605 12 174 6.4 11.3 0.00 0.00 0.00 84 1013.0
20260505011606 12 133 3.2 4.8 0.00 0.00 0.00 84 1013.1
20260505011105 12 115 3.2 4.8 0.00 0.00 0.00 83 1013.1
20260505005605 12 115 0.0 0.0 0.00 0.00 0.00 83 1013.1
20260505005105 12 115 0.0 3.2 0.00 0.00 0.00 83 1013.1
20260505002606 12 117 3.2 8.0 0.00 0.00 0.00 82 1013.2
20260504235605 12 130 4.8 8.0 0.00 0.00 0.00 81 1013.3
20260504234105 12 119 4.8 11.3 0.00 0.00 0.00 81 1013.4
20260504232605 12 140 4.8 8.0 0.00 0.00 0.00 80 1013.6
20260504232105 12 140 6.4 19.3 0.00 0.00 0.00 80 1013.6
20260504231606 13 121 4.8 16.1 0.00 0.00 0.00 80 1013.6
20260504231107 13 126 4.8 11.3 0.00 0.00 0.00 80 1013.6
20260504230105 13 117 3.2 4.8 0.00 0.00 0.00 80 1013.6
20260504225605 13 117 1.6 4.8 0.00 0.00 0.00 80 1013.6
20260504225105 13 117 3.2 8.0 0.00 0.00 0.00 80 1013.7
20260504224605 13 116 3.2 9.7 0.00 0.00 0.00 80 1013.6
20260504223106 13 68 4.8 12.9 0.00 0.00 0.00 80 1013.6
20260504222605 13 62 4.8 12.9 0.00 0.00 0.00 80 1013.6
20260504222105 13 103 4.8 11.3 0.00 0.00 0.00 80 1013.6
20260504215605 13 72 4.8 9.7 0.00 0.00 0.00 80 1013.8
20260504214105 13 65 6.4 12.9 0.00 0.00 0.00 80 1013.7
20260504213105 13 121 4.8 12.9 0.00 0.00 0.00 80 1013.7
20260504210605 14 102 3.2 9.7 0.00 0.00 0.00 79 1013.6
20260504205605 14 55 4.8 14.5 0.00 0.00 0.00 79 1013.6
20260504205105 14 50 3.2 9.7 0.00 0.00 0.00 79 1013.6
20260504204105 14 72 6.4 12.9 0.00 0.00 0.00 78 1013.6
20260504203605 14 62 8.0 16.1 0.00 0.00 0.00 78 1013.6
20260504203105 14 53 8.0 16.1 0.00 0.00 0.00 78 1013.6
20260504202606 14 66 3.2 8.0 0.00 0.00 0.00 78 1013.5
20260504202106 15 119 3.2 9.7 0.00 0.00 0.00 78 1013.6
20260504201105 15 67 4.8 11.3 0.00 0.00 0.00 78 1013.5
20260504195605 15 84 4.8 11.3 0.00 0.00 0.00 77 1013.4
20260504194105 15 123 3.2 9.7 0.00 0.00 0.00 77 1013.3